ARIANE 1 DEB

Satellite information

Favourite Embed

Satellite Type and Status

DEBRISIN ORBIT

Key statistics

Satellite ARIANE 1 DEB at a glance.

Uptime

14318

Days in orbit

Revolutions

≈ 14.5

Per day

Orbit

SSO

Sun Synchronous Orbit

Inclination

98.2

Latest

Satellite identification and parameters

Extended collection of information and parameters for ARIANE 1 DEB.

Object identification

Identified? True

Debris? True

Object name: ARIANE 1 DEB

International designator: 1986-019VN

Object number (NORAD): 27596

Object ID (CCSDS): 27596

Country: FRANCE (FR)

Current information (Y/N): Y

RCS size: SMALL

Orbital parameters

Period: 99.121 minutes

Inclination: 98.2193 deg

SMA: 7094.74 km

Apoapsis: 745.462 km

Periapsis: 687.747 km

RAAN: 105.928 deg

Eccentricy: 0.0040675

Argument of periapsis: 132.9443 deg

Mean anomaly: 288.1367 deg

Mean motion: 14.52774069 rev/day

Mean motion (dot): 0.00003384 rev/day2

B* drag term: 0.00082588 1/REarth

Two-line elements (TLE)

Creation date: May 6, 2025, 3:54 a.m.

Reference frame: TEME

Reference center: EARTH

Epoch: May 5, 2025, 8:57 p.m. UTC

TLE line 0: 0 ARIANE 1 DEB

TLE line 1: 1 27596U 86019VN 25125.87304718 .00003384 00000-0 82588-3 0 9998

TLE line 2: 2 27596 98.2193 105.9280 0040675 132.9443 288.1367 14.52774069554965

Live tracking on map

Real-time ground track for satellite ARIANE 1 DEB.

In-orbit conjunctions

A list of the most updated potential collisions computed for object ARIANE 1 DEB.

Target Orbit TCA Probability of collision Miss distance Type
COSMOS 1331 LEO 2024-10-10 18:09:52 0.0008575924 322.0 (m) PAYLOAD
COSMOS 2251 DEB LEO 2024-09-25 20:43:30 0.0001840444 513.0 (m) DEBRIS

Associated space launch

SPOT 1 is a French Earth observation satellite. Viking is Sweden's first satellite.

ARIANE 1 DEB was lifted into orbit during the mission ‘Ariane 1 | SPOT 1 & Viking’, on board a Ariane 1 space rocket.

The launch took place on Feb. 22, 1986, 1:44 a.m. from Ariane Launch Area 1 (ELV).

For more information about the launch, click the button.

Launch to space Ariane 1 | SPOT 1 & Viking
Ariane 1 | SPOT 1 & Viking

Agency: N/A

Status: Launch Successful

Launch date: Feb. 22, 1986, 1:44 a.m. UTC

Rocket: Ariane 1

Launch pad: Ariane Launch Area 1 (ELV)

Location: Guiana Space Centre, French Guiana

...

Latest news about this satellite

There are no fresh news available about this satellite. Check back as we update our databases every day.


Newsletter sign-up

Weekly statistics, charts and insights to help you stay on top of the space industry.